West Yellowstone, MT

2:11 PM MST on January 22, 2017 (GMT -0700)
Yellowstone

Weather History for KWYS - June, 2014

Change the Weather History Date:

Saturday, June 14, 2014

  Actual Average Record
Temperature  
Mean Temperature 43 °F -  
Max Temperature 53 °F 66 °F 68 °F (2015)
Min Temperature 33 °F 36 °F 32 °F (2011)
Degree Days  
Heating Degree Days 22    
Moisture  
Dew Point 30 °F    
Average Humidity 62    
Maximum Humidity 100    
Minimum Humidity 30    
Precipitation  
Precipitation 0.04 in - - ()
Sea Level Pressure  
Sea Level Pressure 29.93 in    
Wind  
Wind Speed 6 mph (WSW)    
Max Wind Speed 15 mph    
Max Gust Speed 52 mph    
Visibility 10 miles    
Events Rain    
Averages and records for this station are not official NWS values.
T = Trace of Precipitation, MM = Missing Value Source: NWS Daily Summary

Daily Weather History Graph

Daily Weather History Graph

Search for Another Location

Airport or City:

Trip Planner

Search our weather history database for the weather conditions in past years. The results will help you decide how hot, cold, wet, or windy it might be!

Date:

Astronomy

Jun. 14, 2014 Rise Set
Actual Time 5:38 AM MDT 9:11 PM MDT
Civil Twilight 5:01 AM MDT 9:48 PM MDT
Nautical Twilight 4:12 AM MDT 10:37 PM MDT
Astronomical Twilight 3:08 AM MDT 11:41 PM MDT
Moon 10:32 PM MDT (6/14) 7:30 AM MDT (6/14)
Length of Visible Light 16h 47m
Length of Day
15h 33m
Waning Gibbous, 96% of the Moon is Illuminated
Jun 14
Waning Gibbous
Jun 19
Last Quarter
Jun 27
New
Jul 5
First Quarter
Jul 12
Full

Hourly Weather History & Observations

Time (MDT) Temp. Windchill Dew Point Humidity Pressure Visibility Wind Dir Wind Speed Gust Speed Precip Events Conditions
12:10 AM 41.0 °F 36.4 °F 35.6 °F 81% 29.89 in 10.0 mi SW 6.9 mph - N/A   Clear
12:30 AM 41.0 °F 37.1 °F 33.8 °F 76% 29.88 in 10.0 mi SW 5.8 mph - N/A   Clear
12:50 AM 41.0 °F - 33.8 °F 76% 29.88 in 10.0 mi Calm Calm - N/A   Clear
1:10 AM 41.0 °F 39.0 °F 33.8 °F 76% 29.89 in 10.0 mi SW 3.5 mph - N/A   Mostly Cloudy
1:30 AM 39.2 °F 35.9 °F 33.8 °F 81% 29.89 in 10.0 mi West 4.6 mph - N/A   Mostly Cloudy
1:50 AM 39.2 °F 35.9 °F 33.8 °F 81% 29.89 in 10.0 mi WSW 4.6 mph - N/A   Mostly Cloudy
2:10 AM 37.4 °F 34.9 °F 32.0 °F 81% 29.90 in 10.0 mi SSW 3.5 mph - N/A   Scattered Clouds
2:30 AM 37.4 °F 34.9 °F 33.8 °F 87% 29.91 in 10.0 mi WSW 3.5 mph - N/A   Mostly Cloudy
2:50 AM 39.2 °F 35.9 °F 33.8 °F 81% 29.91 in 10.0 mi SSW 4.6 mph - N/A   Overcast
3:10 AM 39.2 °F - 33.8 °F 81% 29.92 in 10.0 mi Calm Calm - N/A   Overcast
3:30 AM 35.6 °F 32.8 °F 33.8 °F 93% 29.92 in 2.5 mi NNW 3.5 mph - 0.03 in Rain Light Rain
3:50 AM 37.4 °F - 33.8 °F 87% 29.92 in 8.0 mi Calm Calm - 0.04 in Rain Light Rain
4:10 AM 37.4 °F - 33.8 °F 87% 29.92 in 10.0 mi Calm Calm - N/A Rain Light Rain
4:30 AM 35.6 °F 31.7 °F 35.6 °F 100% 29.92 in 10.0 mi SE 4.6 mph - N/A   Overcast
4:50 AM 35.6 °F 31.7 °F 35.6 °F 100% 29.91 in 10.0 mi East 4.6 mph - N/A   Overcast
5:10 AM 35.6 °F - 35.6 °F 100% 29.92 in 10.0 mi Calm Calm - N/A   Overcast
5:30 AM 35.6 °F - 35.6 °F 100% 29.92 in 10.0 mi Calm Calm - N/A   Overcast
5:50 AM 35.6 °F 32.8 °F 33.8 °F 93% 29.92 in 10.0 mi WSW 3.5 mph - N/A   Overcast
6:10 AM 33.8 °F - 33.8 °F 100% 29.92 in 10.0 mi Calm Calm - N/A   Mostly Cloudy
6:30 AM 33.8 °F - 33.8 °F 100% 29.93 in 10.0 mi Calm Calm - N/A   Mostly Cloudy
6:50 AM 35.6 °F - 33.8 °F 93% 29.93 in 10.0 mi Calm Calm - N/A   Scattered Clouds
7:10 AM 37.4 °F - 33.8 °F 87% 29.93 in 10.0 mi Calm Calm - N/A   Mostly Cloudy
7:30 AM 37.4 °F 34.9 °F 35.6 °F 93% 29.93 in 10.0 mi WSW 3.5 mph - N/A   Overcast
7:50 AM 39.2 °F - 33.8 °F 81% 29.94 in 10.0 mi Calm Calm - N/A   Overcast
8:10 AM 39.2 °F 34.2 °F 33.8 °F 81% 29.94 in 10.0 mi SW 6.9 mph - N/A   Overcast
8:30 AM 37.4 °F 33.8 °F 32.0 °F 81% 29.94 in 10.0 mi WSW 4.6 mph - N/A   Mostly Cloudy
8:50 AM 41.0 °F 37.1 °F 32.0 °F 70% 29.94 in 10.0 mi SW 5.8 mph - N/A   Overcast
9:10 AM 41.0 °F 34.7 °F 32.0 °F 70% 29.93 in 10.0 mi SW 10.4 mph - N/A   Scattered Clouds
9:30 AM 42.8 °F 36.6 °F 30.2 °F 61% 29.93 in 10.0 mi SW 11.5 mph 51.8 mph N/A   Partly Cloudy
9:50 AM 44.6 °F 39.7 °F 30.2 °F 57% 29.93 in 10.0 mi West 9.2 mph 16.1 mph N/A   Partly Cloudy
10:10 AM 44.6 °F 38.1 °F 26.6 °F 49% 29.92 in 10.0 mi SW 13.8 mph 20.7 mph N/A   Partly Cloudy
10:30 AM 44.6 °F 38.4 °F 26.6 °F 49% 29.93 in 10.0 mi West 12.7 mph 21.9 mph N/A   Clear
10:50 AM 46.4 °F 41.1 °F 28.4 °F 50% 29.93 in 10.0 mi SW 11.5 mph 21.9 mph N/A   Partly Cloudy
11:10 AM 46.4 °F 42.4 °F 28.4 °F 50% 29.93 in 10.0 mi WSW 8.1 mph 17.3 mph N/A   Partly Cloudy
11:30 AM 46.4 °F 40.7 °F 28.4 °F 50% 29.93 in 10.0 mi SW 12.7 mph - N/A   Mostly Cloudy
11:50 AM 44.6 °F 39.7 °F 26.6 °F 49% 29.94 in 10.0 mi West 9.2 mph 18.4 mph N/A   Overcast
12:10 PM 44.6 °F 40.7 °F 28.4 °F 53% 29.94 in 10.0 mi West 6.9 mph - N/A   Overcast
12:30 PM 46.4 °F 42.9 °F 28.4 °F 50% 29.93 in 10.0 mi West 6.9 mph - N/A   Overcast
12:50 PM 46.4 °F 43.5 °F 28.4 °F 50% 29.93 in 10.0 mi NNW 5.8 mph - N/A   Mostly Cloudy
1:10 PM 46.4 °F 40.7 °F 26.6 °F 46% 29.93 in 10.0 mi WSW 12.7 mph 17.3 mph N/A   Mostly Cloudy
1:30 PM 46.4 °F 41.5 °F 26.6 °F 46% 29.93 in 10.0 mi WNW 10.4 mph - N/A   Overcast
1:50 PM 48.2 °F - 24.8 °F 40% 29.93 in 10.0 mi West 9.2 mph 19.6 mph N/A   Scattered Clouds
2:10 PM 50.0 °F - 24.8 °F 37% 29.93 in 10.0 mi WNW 6.9 mph 19.6 mph N/A   Scattered Clouds
2:30 PM 48.2 °F - 26.6 °F 43% 29.94 in 10.0 mi WNW 8.1 mph 16.1 mph N/A   Mostly Cloudy
2:50 PM 48.2 °F - 24.8 °F 40% 29.94 in 10.0 mi NNW 9.2 mph 16.1 mph N/A   Mostly Cloudy
3:10 PM 50.0 °F - 23.0 °F 35% 29.94 in 10.0 mi WNW 5.8 mph 17.3 mph N/A   Mostly Cloudy
3:30 PM 50.0 °F - 24.8 °F 37% 29.94 in 10.0 mi NNW 8.1 mph 16.1 mph N/A   Mostly Cloudy
3:50 PM 50.0 °F - 24.8 °F 37% 29.94 in 10.0 mi North 6.9 mph - N/A   Scattered Clouds
4:10 PM 50.0 °F - 23.0 °F 35% 29.94 in 10.0 mi WSW 5.8 mph - N/A   Clear
4:30 PM 51.8 °F - 21.2 °F 30% 29.94 in 10.0 mi WNW 12.7 mph 18.4 mph N/A   Scattered Clouds
4:50 PM 53.6 °F - 23.0 °F 30% 29.94 in 10.0 mi West 8.1 mph 24.2 mph N/A   Scattered Clouds
5:10 PM 53.6 °F - 24.8 °F 33% 29.94 in 10.0 mi WNW 8.1 mph 18.4 mph N/A   Scattered Clouds
5:30 PM 53.6 °F - 24.8 °F 33% 29.95 in 10.0 mi West 12.7 mph 23.0 mph N/A   Mostly Cloudy
5:50 PM 50.0 °F - 24.8 °F 37% 29.95 in 10.0 mi West 11.5 mph 18.4 mph N/A   Partly Cloudy
6:10 PM 50.0 °F - 24.8 °F 37% 29.95 in 10.0 mi WSW 12.7 mph 18.4 mph N/A   Partly Cloudy
6:30 PM 51.8 °F - 26.6 °F 38% 29.95 in 10.0 mi West 11.5 mph 17.3 mph N/A   Partly Cloudy
6:50 PM 50.0 °F - 26.6 °F 40% 29.95 in 10.0 mi West 6.9 mph 18.4 mph N/A   Mostly Cloudy
7:10 PM 53.6 °F - 26.6 °F 35% 29.95 in 10.0 mi WSW 6.9 mph 17.3 mph N/A   Overcast
7:30 PM 50.0 °F - 28.4 °F 43% 29.96 in 10.0 mi West 9.2 mph - N/A   Overcast
7:50 PM 50.0 °F - 26.6 °F 40% 29.96 in 10.0 mi WSW 4.6 mph - N/A   Overcast
8:10 PM 50.0 °F - 28.4 °F 43% 29.96 in 10.0 mi SW 4.6 mph - N/A   Overcast
8:30 PM 50.0 °F - 28.4 °F 43% 29.96 in 10.0 mi SW 4.6 mph - N/A   Overcast
8:50 PM 48.2 °F - 28.4 °F 46% 29.96 in 10.0 mi SSW 4.6 mph - N/A   Overcast
9:10 PM 48.2 °F - 30.2 °F 50% 29.96 in 10.0 mi SW 5.8 mph - N/A   Overcast
9:30 PM 48.2 °F - 32.0 °F 54% 29.97 in 10.0 mi Calm Calm - N/A   Overcast
9:50 PM 46.4 °F 45.2 °F 32.0 °F 57% 29.97 in 10.0 mi WSW 3.5 mph - N/A   Overcast
10:10 PM 46.4 °F 40.4 °F 32.0 °F 57% 29.97 in 10.0 mi SSW 13.8 mph 20.7 mph N/A   Overcast
10:30 PM 46.4 °F 40.1 °F 32.0 °F 57% 29.98 in 10.0 mi SSW 15.0 mph - N/A   Overcast
10:50 PM 46.4 °F 41.1 °F 32.0 °F 57% 29.98 in 10.0 mi SW 11.5 mph 24.2 mph N/A   Overcast
11:10 PM 44.6 °F 38.8 °F 33.8 °F 66% 29.98 in 10.0 mi SSW 11.5 mph 21.9 mph N/A   Mostly Cloudy
11:30 PM 44.6 °F 40.2 °F 33.8 °F 66% 29.97 in 10.0 mi SW 8.1 mph - N/A   Overcast
11:50 PM 44.6 °F 42.2 °F 33.8 °F 66% 29.97 in 10.0 mi South 4.6 mph - N/A   Overcast